This is the latest recevied weather packets stored in our database for station/object KD8PH. If no packets are shown the sender has not sent any weather packets the latest 10 day(s).
| Time | Temp. | Humidity | Pressure | Rain* | Wind** | Luminosity | Snow |
|---|---|---|---|---|---|---|---|
| 1777826137 | 14.44° C | 56% | 1020.5 hPa | 0 mm | - | - | - |
| 1777825551 | 13.89° C | 55% | 1020.5 hPa | 0 mm | - | - | - |
| 1777824934 | 13.89° C | 60% | 1020.7 hPa | 0 mm | - | - | - |
| 1777824353 | 13.89° C | 60% | 1020.7 hPa | 0 mm | - | - | - |
| 1777823750 | 13.33° C | 59% | 1020.8 hPa | 0 mm | - | - | - |
| 1777823154 | 13.33° C | 65% | 1020.8 hPa | 0 mm | - | - | - |
| 1777822536 | 13.33° C | 64% | 1020.8 hPa | 0 mm | - | - | - |
| 1777821936 | 12.78° C | 65% | 1020.7 hPa | 0 mm | - | - | - |
| 1777821343 | 13.33° C | 61% | 1020.7 hPa | 0 mm | - | - | - |
| 1777820734 | 12.78° C | 64% | 1020.8 hPa | 0 mm | - | - | - |
| 1777820143 | 12.78° C | 61% | 1020.8 hPa | 0 mm | - | - | - |
| 1777819545 | 13.33° C | 62% | 1021 hPa | 0 mm | - | - | - |
| 1777818940 | 12.78° C | 69% | 1020.9 hPa | 0 mm | - | - | - |
| 1777818339 | 12.78° C | 70% | 1020.9 hPa | 0 mm | - | - | - |
| 1777817742 | 12.22° C | 71% | 1020.8 hPa | 0 mm | - | - | - |
| 1777817136 | 12.22° C | 73% | 1020.8 hPa | 0 mm | - | - | - |
| 1777816554 | 12.22° C | 73% | 1020.6 hPa | 0 mm | - | - | - |
| 1777815938 | 11.67° C | 71% | 1020.7 hPa | 0 mm | - | - | - |
| 1777815334 | 11.67° C | 75% | 1020.8 hPa | 0 mm | - | - | - |
| 1777814740 | 11.67° C | 76% | 1020.8 hPa | 0 mm | - | - | - |
| 1777814140 | 11.67° C | 74% | 1020.7 hPa | 0 mm | - | - | - |
| 1777813536 | 11.67° C | 76% | 1020.6 hPa | 0 mm | - | - | - |
| 1777812942 | 11.11° C | 77% | 1020.4 hPa | 0 mm | - | - | - |
| 1777812337 | 10.56° C | 78% | 1020.2 hPa | 0 mm | - | - | - |
| 1777811734 | 10.56° C | 80% | 1020.2 hPa | 0 mm | - | - | - |
* Rain latest hour (hover to see other rain measurements)
** Current wind speed in m/s (hover to see current wind gust speed)